Home > Weather > San Francisco > Past weeks

Flag for USA Past Weather in San Francisco, California, USA — Yesterday and Last 2 Weeks

Now
67 °F

Passing clouds.


Feels Like: 67 °F
Forecast: 54 / 66 °F
Wind: 20 mph from Northwest

Location: San Francisco International Airport

Current Time: Jul 1, 2016 at 5:25:09 PM

Latest Report: Jul 1, 2016 at 4:56 PM


Visibility: 10 mi

Pressure: 29.85 "Hg

Humidity: 57%

Dew Point: 51 °F

Location of San FranciscoLocation

Past Weather in San Francisco — Graph

°F

San Francisco Temperature Yesterday

Maximum temperature yesterday: 73 °F (at 2:56 PM)
Minimum temperature yesterday: 53 °F (at 4:56 AM)
Average temperature yesterday: 60 °F

High & Low Weather Summary for the Past Weeks

 TemperatureHumidityPressure
High82 °F (Jun 19, 1:56 PM)93% (Jun 24, 2:56 AM)30.20 "Hg (Jun 24, 2:56 AM)
Low52 °F (Jun 27, 4:56 AM)28% (Jun 19, 1:56 PM)29.81 "Hg (Jun 30, 5:56 PM)
Average62 °F67%30.01 "Hg
* Reported Jun 16 3:56 PM — Jul 1 3:56 PM, San Francisco, Weather by CustomWeather, © 2016

Note: Actual official high and low records may vary slightly from our data, if they occured in-between our weather recording intervals... More about our weather records

Advertising

San Francisco Weather History for the Previous 24 Hours

Scroll right to see more
 ConditionsComfort  
Time TempWeatherWind HumidityBarometerVisibility
3:56 PM
Fri, Jul 1
69 °FPassing clouds.15 mph55%29.85 "Hg10 mi
2:56 PM68 °FPassing clouds.15 mph55%29.87 "Hg10 mi
1:56 PM68 °FPassing clouds.15 mph55%29.89 "Hg10 mi
12:56 PM67 °FPassing clouds.7 mph61%29.90 "Hg10 mi
11:56 AM65 °FPassing clouds.8 mph66%29.90 "Hg10 mi
10:56 AM65 °FPassing clouds.9 mph61%29.90 "Hg10 mi
9:56 AM62 °FPassing clouds.10 mph67%29.89 "Hg9 mi
8:56 AM61 °FPassing clouds.7 mph67%29.88 "Hg9 mi
7:56 AM59 °FPassing clouds.7 mph72%29.86 "Hg8 mi
6:56 AM55 °FHaze.8 mph83%29.85 "Hg6 mi
5:56 AM54 °FPassing clouds.7 mph83%29.85 "Hg7 mi
4:56 AM54 °FPassing clouds.7 mph83%29.83 "Hg10 mi
3:56 AM54 °FPassing clouds.13 mph83%29.82 "Hg10 mi
2:56 AM55 °FPassing clouds.13 mph80%29.83 "Hg10 mi
1:56 AM56 °FPassing clouds.9 mph77%29.83 "Hg10 mi
12:56 AM56 °FClear.14 mph77%29.83 "Hg10 mi
11:56 PM
Thu, Jun 30
56 °FClear.13 mph77%29.83 "Hg10 mi
10:56 PM57 °FClear.15 mph74%29.84 "Hg10 mi
9:56 PM57 °FClear.18 mph74%29.84 "Hg8 mi
8:56 PM57 °FSunny.20 mph74%29.83 "Hg8 mi
7:56 PM59 °FSunny.21 mph69%29.82 "Hg9 mi
6:56 PM62 °FPassing clouds.21 mph65%29.81 "Hg9 mi
5:56 PM64 °FPassing clouds.23 mph61%29.81 "Hg9 mi
Weather by CustomWeather, © 2016

See weather overviewHow to use our weather pages